Regional Weather Roundup
Issued by NWS Boston, MA

Home | Current Version | Previous Version | Text Only | Print | Product List | Glossary On
Versions: 1 2 3 4 5 6 7 8 9 10 11 12 13 14 15 16 17 18 19 20 21 22 23 24 25 26 27 28 29 30 31 32 33 34 35 36 37 38 39 40 41 42 43 44 45 46 47 48 49 50
140
ASUS41 KBOX 241510
RWRBOX

REGIONAL WEATHER ROUNDUP
NATIONAL WEATHER SERVICE TAUNTON MA
1100 AM EDT SAT JUN 24 2017

NOTE:  "FAIR" INDICATES FEW OR NO CLOUDS BELOW 12,000 FEET WITH NO
SIGNIFICANT WEATHER AND/OR OBSTRUCTIONS TO VISIBILITY.

MAZALL-241600-
EASTERN MASSACHUSETTS

CITY           SKY/WX    TMP DP  RH WIND       PRES   REMARKS
BOSTON         LGT RAIN  73  72  96 S6        29.55F
BEVERLY        LGT RAIN  75  74  96 SW6       29.54F
LAWRENCE       CLOUDY    79  74  84 S3        29.57S
BEDFORD        LGT RAIN  76  71  85 SW7       29.55R
BLUE HILL        N/A     71  69  93 S9        29.57F
NORWOOD        LGT RAIN  74  73  97 S6        29.55F
MARSHFIELD     RAIN      72  72 100 SW3       29.57S
PLYMOUTH       HVY RAIN  71  69  93 S6        29.59S VSB 1/2
TAUNTON        RAIN      71  69  93 S6        29.58R FOG
NEW BEDFORD    TSTM      69  68  96 S7        29.58S FOG
$$

MAZALL-241600-
CAPE COD AND THE ISLANDS

CITY           SKY/WX    TMP DP  RH WIND       PRES   REMARKS
FALMOUTH         N/A    N/A N/A N/A MISG        N/A
HYANNIS        RAIN      69  68  96 SW16G25   29.60R FOG
CHATHAM        LGT RAIN  69  67  93 SW13G18   29.62S FOG
PROVINCETOWN   HVY RAIN  67  66  97 SW9       29.58F FOG
NANTUCKET      CLOUDY    66  65  96 S17       29.62F FOG
MARTHAS VNYRD  LGT RAIN  67  65  93 SW12      29.60F FOG
$$

MAZALL-241600-
CENTRAL AND WESTERN MASSACHUSETTS

CITY           SKY/WX    TMP DP  RH WIND       PRES   REMARKS
WORCESTER      LGT RAIN  70  66  87 NW13G24   29.62R FOG
FITCHBURG      CLOUDY    79  68  69 W7        29.58
ORANGE         LGT RAIN  73  67  81 NE3       29.58S
SPRINGFIELD    PTSUNNY   72  69  88 NE7       29.57R
WESTFIELD      CLOUDY    77  67  71 NW8       29.58R
NORTH ADAMS    CLOUDY    73  65  75 W10       29.63R
PITTSFIELD     PTSUNNY   70  62  76 W12G21    29.65R
$$

RIZALL-241600-
RHODE ISLAND

CITY           SKY/WX    TMP DP  RH WIND       PRES   REMARKS
PROVIDENCE     LGT RAIN  73  73 100 S6        29.58F
NEWPORT        LGT RAIN  68  68 100 VRB5      29.60S FOG
BLOCK ISLAND   LGT RAIN  66  65  96 SW17      29.60S FOG
WESTERLY       CLOUDY    72  71  97 SW5       29.60R
$$

CTZALL-241600-
CONNECTICUT

CITY           SKY/WX    TMP DP  RH WIND       PRES   REMARKS
BRADLEY INTL   PTSUNNY   77  67  71 NW9       29.59R
HARTFORD       PTSUNNY   80  72  76 W10       29.58S
BRIDGEPORT     MOSUNNY   76  69  79 SW12      29.61R
DANBURY        SUNNY     80  66  62 W13G22    29.65R
GROTON         CLOUDY    72  71  97 W7        29.59S FOG
NEW HAVEN      PTSUNNY   73  72  94 SW46      29.61R
CHESTER        CLOUDY    73  72  94 W6        29.62
MERIDEN        CLOUDY    78  67  68 NW9       29.61R
WILLIMANTIC    CLOUDY    77  73  87 SW7       29.60R
OXFORD         PTSUNNY   72  63  73 N15       29.66R
$$

MEZ002-015-021-024-NHZ003-005-008-011-012-014-VTZ005-008-241600-
NORTHERN NEW ENGLAND

CITY           SKY/WX    TMP DP  RH WIND       PRES   REMARKS
PORTLAND ME    CLOUDY    78  68  71 SW9       29.52R
BANGOR ME      CLOUDY    71  69  93 VRB6      29.47R
CONCORD NH     CLOUDY    75  71  87 VRB5      29.55S
MANCHESTER NH  CLOUDY    75  67  76 S3        29.55R
NASHUA NH      CLOUDY    78  68  71 W7        29.57R
PORTSMOUTH NH  PTSUNNY   80  67  65 W8        29.53S
JAFFREY NH     CLOUDY    73  68  84 CALM      29.59F
KEENE NH       CLOUDY    73  69  87 S7        29.57F
BURLINGTON VT  MOSUNNY   76  63  64 NW9G18    29.59R
MT. WASHINGTON SHOWER    52  52 100 W58G68      N/A  VSB 1/16
$$

NYZ052-076-241600-
EASTERN NEW YORK

CITY           SKY/WX    TMP DP  RH WIND       PRES   REMARKS
ALBANY         MOSUNNY   76  63  64 W18G24    29.65R
NEW YORK CITY  PTSUNNY   80  71  74 NW10      29.64R
$$

ANZALL-241600-
MARINE OBSERVATIONS

STATION/POSITION TIME  TEMP    WIND        PRES    VSBY  WAVE
                       AIR SEA DIR/SP/G                  HT/PER
                 (UTC) (F)     (DEG/KT/KT) (MB)    (MI)  (FT/S)
BOSTON BUOY      1450   65 57  190/  6/  8 1000.8F         2/ 5
BUZZARDS BAY     1400   66     200/ 16/ 16 1002.1F
NANTUCKET SOUND  1450      65              1002.4F         1/ 3
MASS BAY-STELLWA 1404   64 60  190/ 12/ 14 1000.2R         2/ 6
ISLE OF SHOALS   1400   75     220/ 17/ 18  999.8R
S OF BLOCK IS    1455      62                N/A           7/ 6
$$

......................KEY.........................
  SKY/WX - SKY CONDITION/PRESENT WEATHER
  TMP    - TEMPERATURE IN FAHRENHEIT
  DWPT   - DEWPOINT IN FAHRENHEIT
  RH     - RELATIVE HUMIDITY IN PERCENT
  WIND   - DIRECTION AND SPEED IN MPH
  PRES   - MEAN SEA LEVEL PRESSURE IN INCHES OF HG
  WCI    - WIND CHILL INDEX
  VSB    - VISIBILITY IN MILES
  HX     - HEAT INDEX
  TC     - TEMPERATURE IN CELSIUS
  VRB    - VARIABLE WIND DIRECTION
  N/A    - NOT AVAILABLE




USA.gov is the U.S. government's official web portal to all federal, state and local government web resources and services.